When you browse on this site, cookies collect data to enhance your experience and personalize the content and advertising you see.
Visit our Privacy Policy to learn more. By continuing to use the site, you agree to this use of cookies and data.
  • In Portugal
  • List of Countries
  • For 7 days
  • Water Temperature
  • Satellite Maps
  • Weather Map
  • Weather Widgets
  • user-avatar
    Login

    Hourly Weather Sunny Beach

    Today, 23 May, Thursday

    Time Temperature Precipitation Wind Pressure Humidity
    00:00 +15°C° 0 mm 2 mps 734 mmHg 85%
    01:00 +15°C° 0 mm 2 mps 734 mmHg 87%
    02:00 +14°C° 0 mm 2 mps 733 mmHg 88%
    03:00 +14°C° 0 mm 2 mps 733 mmHg 88%
    04:00 +14°C° 0 mm 1 mps 733 mmHg 88%
    05:00 +14°C° 0 mm 1 mps 733 mmHg 89%
    06:00 +16°C° 0 mm 1 mps 733 mmHg 81%
    07:00 +19°C° 0 mm 1 mps 734 mmHg 73%
    08:00 +21°C° 0 mm 1 mps 734 mmHg 66%
    09:00 +22°C° 0.1 mm 1 mps 734 mmHg 63%
    10:00 +23°C° 0.1 mm 1 mps 734 mmHg 60%
    11:00 +25°C° 0.1 mm 2 mps 734 mmHg 57%
    12:00 +24°C° 0.7 mm 2 mps 733 mmHg 58%
    13:00 +24°C° 0.7 mm 2 mps 733 mmHg 60%
    14:00 +24°C° 0.7 mm 1 mps 733 mmHg 61%
    15:00 +24°C° 0.7 mm 2 mps 733 mmHg 63%
    16:00 +23°C° 0.7 mm 2 mps 733 mmHg 66%
    17:00 +23°C° 0.7 mm 2 mps 733 mmHg 68%
    18:00 +20°C° 0.6 mm 2 mps 733 mmHg 73%
    19:00 +19°C° 0.6 mm 1 mps 732 mmHg 77%
    20:00 +18°C° 0.6 mm 1 mps 732 mmHg 82%
    21:00 +16°C° 0.4 mm 1 mps 732 mmHg 83%
    22:00 +16°C° 0.4 mm 1 mps 732 mmHg 83%
    23:00 +16°C° 0.4 mm 1 mps 732 mmHg 84%

    Tomorrow, 24 May, Friday

    Time Temperature Precipitation Wind Pressure Humidity
    00:00 +15°C° 0.4 mm 1 mps 732 mmHg 85%
    01:00 +14°C° 0.4 mm 0 mps 732 mmHg 86%
    02:00 +13°C° 0.4 mm 0 mps 732 mmHg 88%
    03:00 +13°C° 0.5 mm 0 mps 731 mmHg 89%
    04:00 +14°C° 0.5 mm 1 mps 731 mmHg 90%
    05:00 +14°C° 0.5 mm 1 mps 731 mmHg 92%
    06:00 +15°C° 0.8 mm 1 mps 731 mmHg 90%
    07:00 +15°C° 0.8 mm 1 mps 732 mmHg 89%
    08:00 +16°C° 0.8 mm 1 mps 732 mmHg 88%
    09:00 +18°C° 0.1 mm 1 mps 732 mmHg 82%
    10:00 +18°C° 0.1 mm 2 mps 732 mmHg 75%
    11:00 +20°C° 0.1 mm 2 mps 732 mmHg 69%
    12:00 +20°C° 0.4 mm 2 mps 732 mmHg 67%
    13:00 +21°C° 0.4 mm 2 mps 732 mmHg 65%
    14:00 +22°C° 0.4 mm 1 mps 731 mmHg 62%
    15:00 +22°C° 0.6 mm 1 mps 731 mmHg 66%
    16:00 +21°C° 0.6 mm 1 mps 731 mmHg 69%
    17:00 +21°C° 0.6 mm 1 mps 731 mmHg 72%
    18:00 +20°C° 0.3 mm 1 mps 731 mmHg 76%
    19:00 +19°C° 0.3 mm 1 mps 731 mmHg 81%
    20:00 +16°C° 0.3 mm 1 mps 731 mmHg 85%
    21:00 +16°C° 0.1 mm 2 mps 731 mmHg 86%
    22:00 +16°C° 0.1 mm 2 mps 731 mmHg 86%
    23:00 +15°C° 0.1 mm 2 mps 731 mmHg 87%

    Day after tomorrow, 25 May, Saturday

    Time Temperature Precipitation Wind Pressure Humidity
    00:00 +15°C° 0.1 mm 2 mps 731 mmHg 87%
    01:00 +14°C° 0.1 mm 2 mps 731 mmHg 88%
    02:00 +14°C° 0.1 mm 2 mps 731 mmHg 89%
    03:00 +14°C° 0 mm 2 mps 731 mmHg 89%
    04:00 +14°C° 0 mm 2 mps 732 mmHg 89%
    05:00 +13°C° 0 mm 2 mps 732 mmHg 90%
    06:00 +15°C° 0 mm 2 mps 732 mmHg 85%
    07:00 +17°C° 0 mm 3 mps 733 mmHg 80%
    08:00 +18°C° 0 mm 3 mps 733 mmHg 75%
    09:00 +19°C° 0 mm 3 mps 733 mmHg 68%
    10:00 +21°C° 0 mm 3 mps 733 mmHg 61%
    11:00 +22°C° 0 mm 3 mps 733 mmHg 54%
    12:00 +24°C° 0.4 mm 3 mps 733 mmHg 56%
    13:00 +24°C° 0.4 mm 3 mps 733 mmHg 59%
    14:00 +24°C° 0.4 mm 3 mps 733 mmHg 61%
    15:00 +24°C° 0.8 mm 3 mps 733 mmHg 64%
    16:00 +22°C° 0.8 mm 3 mps 733 mmHg 66%
    17:00 +23°C° 0.8 mm 2 mps 733 mmHg 69%
    18:00 +20°C° 0 mm 2 mps 733 mmHg 73%
    19:00 +20°C° 0 mm 1 mps 733 mmHg 77%
    20:00 +18°C° 0 mm 1 mps 733 mmHg 81%
    21:00 +18°C° 0 mm 1 mps 733 mmHg 82%
    22:00 +16°C° 0 mm 1 mps 734 mmHg 84%
    23:00 +16°C° 0 mm 1 mps 734 mmHg 85%

    26 May, Sunday

    Time Temperature Precipitation Wind Pressure Humidity
    00:00 +15°C° 0 mm 1 mps 734 mmHg 86%
    01:00 +15°C° 0 mm 1 mps 734 mmHg 87%
    02:00 +15°C° 0 mm 1 mps 734 mmHg 88%
    03:00 +15°C° 0 mm 1 mps 734 mmHg 88%
    04:00 +15°C° 0 mm 1 mps 734 mmHg 88%
    05:00 +14°C° 0 mm 1 mps 734 mmHg 89%
    06:00 +18°C° 0 mm 1 mps 735 mmHg 82%
    07:00 +20°C° 0 mm 1 mps 735 mmHg 76%
    08:00 +22°C° 0 mm 1 mps 735 mmHg 69%
    09:00 +23°C° 0 mm 1 mps 736 mmHg 64%
    10:00 +25°C° 0 mm 1 mps 736 mmHg 58%
    11:00 +26°C° 0 mm 1 mps 736 mmHg 52%
    12:00 +26°C° 0 mm 1 mps 736 mmHg 52%
    13:00 +26°C° 0 mm 2 mps 736 mmHg 52%
    14:00 +26°C° 0 mm 2 mps 736 mmHg 52%
    15:00 +26°C° 0 mm 2 mps 735 mmHg 53%
    16:00 +26°C° 0 mm 2 mps 735 mmHg 55%
    17:00 +26°C° 0 mm 2 mps 735 mmHg 57%
    18:00 +24°C° 0 mm 2 mps 735 mmHg 65%
    19:00 +21°C° 0 mm 2 mps 735 mmHg 72%
    20:00 +19°C° 0 mm 2 mps 735 mmHg 80%
    21:00 +18°C° 0 mm 2 mps 735 mmHg 81%
    22:00 +18°C° 0 mm 2 mps 735 mmHg 83%
    23:00 +18°C° 0 mm 2 mps 735 mmHg 85%

    27 May, Monday

    Time Temperature Precipitation Wind Pressure Humidity
    00:00 +17°C° 0 mm 2 mps 735 mmHg 84%
    01:00 +17°C° 0 mm 2 mps 735 mmHg 83%
    02:00 +16°C° 0 mm 1 mps 735 mmHg 82%
    03:00 +16°C° 0 mm 1 mps 735 mmHg 81%
    04:00 +16°C° 0 mm 1 mps 735 mmHg 79%
    05:00 +16°C° 0 mm 1 mps 734 mmHg 77%
    06:00 +19°C° 0 mm 1 mps 735 mmHg 70%
    07:00 +21°C° 0 mm 1 mps 735 mmHg 64%
    08:00 +23°C° 0 mm 1 mps 735 mmHg 58%
    09:00 +25°C° 0 mm 2 mps 735 mmHg 54%
    10:00 +26°C° 0 mm 2 mps 735 mmHg 50%
    11:00 +27°C° 0 mm 3 mps 735 mmHg 46%
    12:00 +28°C° 0 mm 3 mps 735 mmHg 46%
    13:00 +28°C° 0 mm 3 mps 735 mmHg 46%
    14:00 +29°C° 0 mm 3 mps 734 mmHg 46%
    15:00 +28°C° 0 mm 3 mps 734 mmHg 51%
    16:00 +27°C° 0 mm 3 mps 734 mmHg 56%
    17:00 +26°C° 0 mm 3 mps 734 mmHg 61%
    18:00 +24°C° 0 mm 3 mps 733 mmHg 68%
    19:00 +21°C° 0 mm 3 mps 733 mmHg 74%
    20:00 +19°C° 0 mm 2 mps 733 mmHg 81%
    21:00 +18°C° 0 mm 2 mps 733 mmHg 78%
    22:00 +18°C° 0 mm 2 mps 733 mmHg 75%
    23:00 +18°C° 0 mm 2 mps 733 mmHg 73%

    28 May, Tuesday

    Time Temperature Precipitation Wind Pressure Humidity
    00:00 +18°C° 0 mm 2 mps 733 mmHg 69%
    01:00 +19°C° 0 mm 1 mps 732 mmHg 65%
    02:00 +19°C° 0 mm 1 mps 732 mmHg 62%
    03:00 +18°C° 0 mm 1 mps 732 mmHg 64%
    04:00 +18°C° 0 mm 1 mps 732 mmHg 66%
    05:00 +18°C° 0 mm 1 mps 732 mmHg 68%
    06:00 +19°C° 0.3 mm 2 mps 732 mmHg 69%
    07:00 +21°C° 0.3 mm 2 mps 732 mmHg 70%
    08:00 +24°C° 0.3 mm 2 mps 732 mmHg 71%
    09:00 +26°C° 0 mm 3 mps 732 mmHg 60%
    10:00 +28°C° 0 mm 3 mps 732 mmHg 48%
    11:00 +30°C° 0 mm 4 mps 732 mmHg 37%
    12:00 +30°C° 0 mm 4 mps 732 mmHg 36%
    13:00 +32°C° 0 mm 5 mps 732 mmHg 36%
    14:00 +32°C° 0 mm 5 mps 732 mmHg 36%
    15:00 +30°C° 0 mm 5 mps 731 mmHg 39%
    16:00 +29°C° 0 mm 4 mps 731 mmHg 41%
    17:00 +29°C° 0 mm 4 mps 731 mmHg 44%
    18:00 +26°C° 0 mm 4 mps 731 mmHg 47%
    19:00 +23°C° 0 mm 4 mps 731 mmHg 50%
    20:00 +21°C° 0 mm 4 mps 731 mmHg 53%
    21:00 +20°C° 0 mm 4 mps 732 mmHg 52%
    22:00 +20°C° 0 mm 4 mps 732 mmHg 52%
    23:00 +19°C° 0 mm 4 mps 732 mmHg 52%
    Show more